Regional Weather Roundup
Issued by NWS Wakefield, VA

Home | Current Version | Previous Version | Text Only | Print | Product List | Glossary Off
Versions: 1 2 3 4 5 6 7 8 9 10 11 12 13 14 15 16 17 18 19 20 21 22 23 24 25 26 27 28 29 30 31 32 33 34 35 36 37 38 39 40 41 42 43 44 45 46 47 48 49 50

000
ASUS41 KAKQ 210915
RWRAKQ

REGIONAL WEATHER ROUNDUP
NATIONAL WEATHER SERVICE WAKEFIELD VA
400 AM EST SUN JAN 21 2018

Note: "fair" indicates few or no clouds below 12,000 feet with no
significant weather and/or obstructions to visibility. * = Denotes
station may not report precipitation (e.g., rain,snow,etc.),
thunder or fog.

VAZ042-051-052>054-056-211000-
NORTHERN VIRGINIA

CITY           SKY/WX    TMP DP  RH WIND       PRES   REMARKS
WASH NATIONAL  FAIR      34  31  88 CALM      30.14S
DULLES         FAIR      30  27  88 CALM      30.12F
FORT BELVOIR   FAIR      28  25  87 CALM        N/A
QUANTICO       NOT AVBL
FREDERICKSBRG* FAIR      31  29  94 CALM      30.13S
STAFFORD*      FAIR      29  29 100 CALM      30.17S
WARRENTON      FAIR      26  22  84 CALM      30.13R
CULPEPER*      FAIR      28  24  86 N3        30.14S
MANASSAS*      FAIR      24  22  91 CALM      30.15R
LEESBURG*      CLOUDY    36  32  87 CALM      30.13S
WINCHESTER     FAIR      34  30  86 CALM      30.13S
FRONT ROYAL*   FAIR      37  32  81 E7        30.12R
LURAY*         FAIR      36  32  87 S3        30.13R
$$

VAZ048-049-060>072-079>083-211000-
CENTRAL AND SOUTH CENTRAL VIRGINIA

CITY           SKY/WX    TMP DP  RH WIND       PRES   REMARKS
RICHMOND       FAIR      33  29  85 CALM      30.15R
CHESTERFIELD*  NOT AVBL
PETERSBURG*    FAIR      28  27  93 CALM      30.16R
HANOVER        FAIR      32  31  96 CALM      30.16R
TAPPAHANNOCK*  FAIR      30  29  96 CALM      30.15S
QUINTON*       FAIR      30  30  99 S6        30.15R
CHARLOTTSVILLE FAIR      44  36  73 S7        30.13R
GORDONSVILLE*  FAIR      32  31  95 SW3       30.13S
ORANGE*        FAIR      30  28  93 CALM      30.13S
LOUISA*        FAIR      40  33  77 SW5       30.18S
BUMPASS*       FAIR      38  33  83 SW3       30.14R
FARMVILLE*     FAIR     N/A N/A N/A CALM      30.15S
CREWE*         FAIR      44  40  86 W5        30.16R
FORT PICKETT*  FAIR      41  40  95 W6        30.16R
CHASE CITY*    FAIR      35  35 100 CALM      30.18R
CLARKSVILLE*   FAIR      43  37  81 CALM      30.17S
SOUTH HILL*    FAIR      44  40  84 W3        30.22S
LAWRENCEVILLE* FAIR      42  37  83 CALM      30.16S
EMPORIA*       FAIR      30  30 100 CALM      30.18S
$$

VAZ088>098-211000-
SOUTHEAST VIRGINIA

CITY           SKY/WX    TMP DP  RH WIND       PRES   REMARKS
NORFOLK        FAIR      38  32  79 SW9       30.15R
VIRGINIA BEACH FAIR      38  29  70 W3        30.15R
NORFOLK NAVAL  FAIR      42  32  67 SW6       30.17R
WEST POINT*    FAIR      30  29  94 CALM      30.17S
SALUDA*        FAIR      32  32 100 SW3       30.15R
NEWPORT NEWS   FAIR      38  32  79 SW5       30.16R
LANGLEY AFB    FAIR      38  33  80 SW6       30.15R
FORT EUSTIS    FAIR      33  30  88 CALM      30.13R
WILLIAMSBURG*  FAIR      34  27  75 CALM      30.16S
HR EXEC AP*    FAIR      30  27  88 CALM      30.17R
FRANKLIN*      FAIR      29  28  94 CALM      30.17S
US460-WAKEFLD  FAIR      31  30  96 CALM      30.17R
$$

VAZ020-022-025-037-045-211000-
WEST CENTRAL AND SOUTHWEST VIRGINIA

CITY           SKY/WX    TMP DP  RH WIND       PRES   REMARKS
STAUNTON*      FAIR      29  27  92 CALM      30.16R
WAYNESBORO*    FAIR      48  41  75 SW9       30.14R
HOT SPRINGS VA FOG       41  41 100 W21G28    30.14R VSB 1/2
LYNCHBURG      FAIR      32  31  96 CALM      30.17R
DANVILLE       FAIR      36  35  96 W3        30.19S
SOUTH BOSTON*  FAIR      36  35  95 CALM      30.18S
MARTINSVILLE   FAIR      29  28  94 CALM      30.22S
ROANOKE        FAIR      47  39  74 CALM      30.19S
BLACKSBURG     FAIR      39  35  88 CALM      30.21F
DUBLIN*        FAIR      35  32  91 S5        30.20F
MARION*        FAIR      37  32  84 W7        30.22S
HILLSVILLE*    FAIR      42  35  74 NW8       30.17F
RICHLANDS*     CLOUDY    45  33  61 SW6       30.20S
WISE*          CLOUDY    46  36  66 SW12      30.20F
ABINGDON*      CLOUDY    38  35  89 CALM      30.22S
$$

MDZ021>025-VAZ099-100-211000-
SOUTHERN MARYLAND AND THE DELMARVA PENINSULA

CITY           SKY/WX    TMP DP  RH WIND       PRES   REMARKS
PATUXENT RIVER NOT AVBL
BAY BRIDGE APT FAIR      32  28  86 CALM      30.14R
LEONARDTOWN    FAIR      34  32  93 CALM      30.15S
DOVER          FAIR      31  31 100 S3        30.12S
GEORGETOWN     FAIR      30  24  78 CALM      30.13S
EASTON         FAIR      32  26  78 CALM      30.17R
CAMBRIDGE      CLEAR     28  27  93 CALM      30.14R
SALISBURY      FAIR      28  24  85 CALM      30.13S
OCEAN CITY     FAIR      31  29  92 NW3       30.14R
WALLOPS ISLAND FAIR      36  32  85 NW7       30.14S
ACCOMACK*      FAIR      35  32  89 SW5       30.15R
$$

NCZ012>017-030>032-211000-
NORTH CENTRAL AND EASTERN NORTH CAROLINA

CITY           SKY/WX    TMP DP  RH WIND       PRES   REMARKS
ROANOKE RAPIDS FAIR      36  32  87 CALM      30.17S
RALEIGH        FAIR      34  31  88 CALM      30.19F
ELIZABETH CITY FAIR      39  34  82 SW7       30.17S
AHOSKIE*       FAIR      33  31  92 CALM      30.17S
EDENTON*       FAIR      42  30  62 W3        30.18S
CURRITUCK*     FAIR      38  30  71 SW3       30.16F
KILL DEVIL HLS FAIR      43  28  54 CALM      30.15F
MANTEO         FAIR      44  29  55 W8        30.17F
CAPE HATTERAS  FAIR      45  34  65 W7        30.18F
TARBORO*       NOT AVBL
GOLDSBORO      FAIR      38  26  61 S5        30.18R
WASHINGTON     FAIR      38  27  64 SW3       30.19S
GREENVILLE     FAIR      37  28  70 SW3       30.20R
NEW BERN       FAIR      42  28  57 VRB3      30.20S
WILMINGTON     FAIR      39  33  79 CALM      30.22R
$$

VAZ048-211000-
ELSEWHERE

CITY           SKY/WX    TMP DP  RH WIND       PRES   REMARKS
HARRISBURG PA  FAIR      27  26  96 CALM      30.12S
BALTIMORE      FAIR      40  31  70 CALM      30.13S
ANNAPOLIS      FAIR      34  32  92 CALM      30.13S
ANDREWS AFB    FAIR      33  27  78 CALM      30.12R
PHILADELPHIA   FAIR      33  28  81 W3        30.13S
HENDERSON NC   FAIR      36  32  87 SW3       30.18S
GREENSBORO     FAIR      33  31  92 CALM      30.19R
ROCKY MOUNT    NOT AVBL
$$

VAZ100-211000-
MARINE

STATION/POSITION TIME  TEMP    WIND        PRES    WAVE   SWELL
                       AIR SEA DIR/SP/G            HT/PER HT/PER
                 (UTC) (F)     (DEG/KT/KT) (MB)    (FT/S) (FT/S)
BRANDYWINE LGT   0842   42     270/  2/  4 1020.7R
CAPE MAY NJ      0842   35 33  260/  2/  2 1019.9R
LEWES DE         0842   41 34  280/  3/  4 1020.1R
15NM E FENWICK I 0850   40 38  240/  6/  6 1021.0R   2/ 7   2/ 7
OCEAN-CITY-INLET 0842   42 36  360/  3/  4 1020.8R
WACHAPREAGUE VA  0842   34 37  230/  2/  3 1020.8R
THOMAS POINT MD  0900   41 33     CALM       N/A
GOOSES REEF MD   0900   36 33  210/  4/  6 1021.0    0
COVE POINT MD    0842   41     180/  3/  4 1021.1R
SOLOMONS ISLAND  0842   33 35  330/  3/  4 1020.1S
BISHOPS HEAD MD  0842   35 36  170/  3/  4 1020.7S
PINEY POINT MD   0848           CALM  /  1   N/A
POTOMAC MD       0850   36      30/  2/  4 1020.1R
CAMBRIDGE MD     0842   31 33              1021.2R
LEWISETTA VA     0842   34 33   CALM  /  1 1020.7R
RAPPAHANNOCK LGT 0848          200/  7/  8 1021.3R
STINGRAY PT      0900   36 34  230/  4/  6 1023.1    0
YORK RVR RNG VA  0842   42     280/  6/  7 1021.2S
YORKTOWN VA      0842   41 36  260/  2/  4 1020.6R
DOMINION TERM VA 0842   41     290/  4/  4 1021.2R
KIPTOPEKE VA     0848      35  230/  1/  2   N/A
CAPE HENRY VA    0842   45     230/  9/ 12   N/A
WILLOUBY STN VA  0848          230/  7/  8 1021.0R
S CRANEY ISL VA  0842   42     230/  2/  3 1020.8R
CAPE HENRY BUOY  0900      38                N/A     2/12
1ST LANDING BUOY 0900   41 35  260/  6/  8 1021.1    1
CAPE CHARLES BUO 0851      39                N/A     2/12
64NM E OF VA BCH 0850   50 55  260/ 14/ 16 1021.0S   4/ 6   2/11
DUCK PIER NC     0842   42 40  240/ 10/ 12 1020.7F
44100 DUCK FRF   0845      40                N/A     2/11
44056 DUCK FRF   0900      40                N/A     1/11
OREGON INLET NC  0842   40 40  210/  4/  5 1021.5F
HATTERAS NC      0842   46 50  270/ 11/ 12 1021.7F
DIAMOND SHLS NC  0850   59 69  290/ 16/ 19 1022.3F   4/ 6   2/10
CAPE LOOKOUT NC  0900          250/  7/  7 1022.8F
$$



USA.gov is the U.S. government's official web portal to all federal, state and local government web resources and services.